Weather History for Artesia, NM

Change the Weather History Date:

Saturday, September 28, 2013

  Actual Average Record
Temperature  
Mean Temperature 62 °F -  
Max Temperature 71 °F 83 °F 101 °F (1953)
Min Temperature 53 °F 48 °F 32 °F (1968)
Degree Days  
Heating Degree Days 3    
Growing Degree Days 12 (Base 50)    
Moisture  
Dew Point 36 °F    
Average Humidity 38    
Maximum Humidity 59    
Minimum Humidity 21    
Precipitation  
Precipitation 0.00 in - - ()
Sea Level Pressure  
Sea Level Pressure 30.13 in    
Wind  
Wind Speed 11 mph (North)    
Max Wind Speed 22 mph    
Max Gust Speed 28 mph    
Visibility 10 miles    
Events      
Averages and records for this station are not official NWS values.
T = Trace of Precipitation, MM = Missing Value Source: NWS Daily Summary

Daily Weather History Graph

Daily Weather History Graph

Search for Another Location

Airport:

Trip Planner

Search our weather history database for the weather conditions in past years. The results will help you decide how hot, cold, wet, or windy it might be!

Date:

Astronomy

Sep. 28, 2013 Rise Set
Actual Time 6:50 AM MDT 6:46 PM MDT
Civil Twilight 6:25 AM MDT 7:10 PM MDT
Nautical Twilight 5:56 AM MDT 7:39 PM MDT
Astronomical Twilight 5:28 AM MDT 8:07 PM MDT
Moon 12:56 AM MDT (9/28) 2:51 PM MDT (9/28)
Length of Visible Light 12h 45m
Length of Day
11h 55m
Waning Crescent, 35% of the Moon is Illuminated
Sep 28
Waning Crescent
Oct 4
New
Oct 11
First Quarter
Oct 18
Full
Oct 26
Last Quarter

Hourly Weather History & Observations

Time (MDT) Temp. Dew Point Humidity Pressure Visibility Wind Dir Wind Speed Gust Speed Precip Events Conditions
12:15 AM 64.4 °F 44.6 °F 49% 29.96 in 10.0 mi NNE 15.0 mph - N/A   Partly Cloudy
12:35 AM 64.4 °F 42.8 °F 45% 29.97 in 10.0 mi NNE 13.8 mph - N/A   Mostly Cloudy
12:55 AM 64.4 °F 42.8 °F 45% 29.97 in 10.0 mi NNE 13.8 mph - N/A   Partly Cloudy
1:15 AM 62.6 °F 41.0 °F 45% 29.97 in 10.0 mi NNE 15.0 mph 23.0 mph N/A   Clear
1:35 AM 62.6 °F 39.2 °F 42% 29.98 in 10.0 mi NNE 17.3 mph - N/A   Partly Cloudy
1:55 AM 62.6 °F 37.4 °F 39% 29.99 in 10.0 mi NNE 15.0 mph - N/A   Partly Cloudy
2:15 AM 60.8 °F 37.4 °F 42% 29.99 in 10.0 mi NNE 15.0 mph - N/A   Clear
2:35 AM 60.8 °F 37.4 °F 42% 29.99 in 10.0 mi NNE 13.8 mph 19.6 mph N/A   Clear
2:55 AM 59.0 °F 37.4 °F 45% 30.00 in 10.0 mi NNE 12.7 mph - N/A   Clear
3:15 AM 59.0 °F 37.4 °F 45% 30.00 in 10.0 mi North 15.0 mph - N/A   Clear
3:35 AM 57.2 °F 37.4 °F 48% 30.01 in 10.0 mi NNE 12.7 mph - N/A   Partly Cloudy
3:55 AM 57.2 °F 35.6 °F 44% 30.02 in 10.0 mi North 11.5 mph - N/A   Scattered Clouds
4:15 AM 57.2 °F 33.8 °F 41% 30.02 in 10.0 mi North 13.8 mph - N/A   Scattered Clouds
4:35 AM 57.2 °F 32.0 °F 38% 30.04 in 10.0 mi North 10.4 mph - N/A   Mostly Cloudy
4:55 AM 57.2 °F 32.0 °F 38% 30.06 in 10.0 mi North 10.4 mph - N/A   Mostly Cloudy
5:15 AM 57.2 °F 32.0 °F 38% 30.07 in 10.0 mi North 10.4 mph - N/A   Scattered Clouds
5:35 AM 57.2 °F 32.0 °F 38% 30.08 in 10.0 mi North 9.2 mph - N/A   Scattered Clouds
5:55 AM 55.4 °F 32.0 °F 41% 30.09 in 10.0 mi North 8.1 mph - N/A   Partly Cloudy
6:15 AM 55.4 °F 32.0 °F 41% 30.10 in 10.0 mi North 9.2 mph - N/A   Clear
6:35 AM 53.6 °F 32.0 °F 44% 30.11 in 10.0 mi North 9.2 mph - N/A   Clear
6:55 AM 53.6 °F 32.0 °F 44% 30.12 in 10.0 mi North 10.4 mph - N/A   Partly Cloudy
7:15 AM 55.4 °F 32.0 °F 41% 30.13 in 10.0 mi North 9.2 mph - N/A   Scattered Clouds
7:35 AM 55.4 °F 32.0 °F 41% 30.14 in 10.0 mi North 12.7 mph - N/A   Scattered Clouds
7:55 AM 59.0 °F 28.4 °F 31% 30.14 in 10.0 mi NNW 17.3 mph 21.9 mph N/A   Scattered Clouds
8:15 AM 59.0 °F 26.6 °F 29% 30.14 in 10.0 mi NNW 18.4 mph 25.3 mph N/A   Scattered Clouds
8:35 AM 62.6 °F 26.6 °F 26% 30.15 in 10.0 mi NNW 21.9 mph - N/A   Clear
8:55 AM 64.4 °F 24.8 °F 22% 30.16 in 10.0 mi NNW 18.4 mph 27.6 mph N/A   Clear
9:15 AM 64.4 °F 24.8 °F 22% 30.17 in 10.0 mi NNW 20.7 mph 24.2 mph N/A   Clear
9:35 AM 66.2 °F 24.8 °F 21% 30.18 in 10.0 mi North 21.9 mph 25.3 mph N/A   Clear
9:55 AM 64.4 °F 26.6 °F 24% 30.19 in 10.0 mi NNE 18.4 mph - N/A   Clear
10:15 AM 64.4 °F 28.4 °F 26% 30.20 in 10.0 mi NNE 16.1 mph 25.3 mph N/A   Clear
10:35 AM 64.4 °F 33.8 °F 32% 30.21 in 10.0 mi NNE 12.7 mph - N/A   Clear
10:55 AM 64.4 °F 35.6 °F 34% 30.21 in 10.0 mi NNE 11.5 mph 16.1 mph N/A   Clear
11:15 AM 64.4 °F 35.6 °F 34% 30.21 in 10.0 mi NNE 6.9 mph - N/A   Clear
12:15 PM 68.0 °F 41.0 °F 37% 30.21 in 10.0 mi ENE 4.6 mph - N/A   Clear
12:35 PM 68.0 °F 39.2 °F 35% 30.20 in 10.0 mi East 6.9 mph - N/A   Clear
12:55 PM 68.0 °F 39.2 °F 35% 30.19 in 10.0 mi NE 8.1 mph - N/A   Clear
1:15 PM 69.8 °F 39.2 °F 33% 30.19 in 10.0 mi East 8.1 mph - N/A   Clear
1:35 PM 71.6 °F 39.2 °F 31% 30.18 in 10.0 mi NE 10.4 mph - N/A   Clear
1:55 PM 71.6 °F 39.2 °F 31% 30.18 in 10.0 mi NNE 5.8 mph - N/A   Clear
2:15 PM 71.6 °F 37.4 °F 29% 30.17 in 10.0 mi NE 10.4 mph - N/A   Clear
2:35 PM 71.6 °F 35.6 °F 27% 30.16 in 10.0 mi Calm Calm - N/A   Clear
2:55 PM 71.6 °F 37.4 °F 29% 30.16 in 10.0 mi SE 4.6 mph - N/A   Clear
3:15 PM 71.6 °F 37.4 °F 29% 30.16 in 10.0 mi Calm Calm - N/A   Clear
3:35 PM 71.6 °F 37.4 °F 29% 30.15 in 10.0 mi NE 4.6 mph - N/A   Clear
3:55 PM 71.6 °F 35.6 °F 27% 30.15 in 10.0 mi East 4.6 mph - N/A   Clear
4:15 PM 71.6 °F 35.6 °F 27% 30.14 in 10.0 mi NE 5.8 mph - N/A   Clear
4:35 PM 71.6 °F 37.4 °F 29% 30.14 in 10.0 mi NW 3.5 mph - N/A   Clear
5:15 PM 71.6 °F 37.4 °F 29% 30.13 in 10.0 mi NNW 4.6 mph - N/A   Clear
5:35 PM 71.6 °F 37.4 °F 29% 30.14 in 10.0 mi NNE 5.8 mph - N/A   Clear
5:55 PM 71.6 °F 37.4 °F 29% 30.14 in 10.0 mi Calm Calm - N/A   Clear
6:15 PM 71.6 °F 37.4 °F 29% 30.14 in 10.0 mi Calm Calm - N/A   Clear
6:35 PM 69.8 °F 37.4 °F 31% 30.14 in 10.0 mi Calm Calm - N/A   Clear
6:55 PM 69.8 °F 37.4 °F 31% 30.15 in 10.0 mi Calm Calm - N/A   Clear
7:15 PM 66.2 °F 41.0 °F 40% 30.15 in 10.0 mi NW 3.5 mph - N/A   Clear
7:35 PM 66.2 °F 41.0 °F 40% 30.16 in 10.0 mi NW 5.8 mph - N/A   Clear
7:55 PM 64.4 °F 41.0 °F 42% 30.16 in 10.0 mi NW 4.6 mph - N/A   Clear
8:15 PM 62.6 °F 41.0 °F 45% 30.17 in 10.0 mi NW 5.8 mph - N/A   Clear
8:35 PM 62.6 °F 41.0 °F 45% 30.18 in 10.0 mi NW 6.9 mph - N/A   Clear
8:55 PM 59.0 °F 41.0 °F 51% 30.19 in 10.0 mi NW 6.9 mph - N/A   Clear
9:15 PM 59.0 °F 41.0 °F 51% 30.20 in 10.0 mi WNW 6.9 mph - N/A   Clear
9:35 PM 57.2 °F 42.8 °F 59% 30.21 in 10.0 mi West 8.1 mph - N/A   Clear
9:55 PM 57.2 °F 41.0 °F 55% 30.22 in 10.0 mi West 8.1 mph - N/A   Clear
10:15 PM 57.2 °F 41.0 °F 55% 30.22 in 10.0 mi West 9.2 mph - N/A   Clear
10:35 PM 57.2 °F 41.0 °F 55% 30.22 in 10.0 mi West 8.1 mph - N/A   Clear
10:55 PM 57.2 °F 41.0 °F 55% 30.23 in 10.0 mi NNW 3.5 mph - N/A   Clear
11:15 PM 57.2 °F 41.0 °F 55% 30.23 in 10.0 mi NE 3.5 mph - N/A   Clear
11:35 PM 57.2 °F 41.0 °F 55% 30.23 in 10.0 mi NNW 3.5 mph - N/A   Clear
11:55 PM 55.4 °F 41.0 °F 58% 30.23 in 10.0 mi NNW 3.5 mph - N/A   Clear